Regional Weather Roundup
Issued by NWS Albany, NY

Home | Current Version | Previous Version | Text Only | Print | Product List | Glossary On
Versions: 1 2 3 4 5 6 7 8 9 10 11 12 13 14 15 16 17 18 19 20 21 22 23 24 25 26
000
ASUS41 KALY 251810
RWRALY

NEW YORK STATE HOURLY WEATHER ROUNDUP
NATIONAL WEATHER SERVICE ALBANY NY
200 PM EDT WED MAY 25 2016

NOTE: "FAIR" INDICATES FEW OR NO CLOUDS BELOW 12,000 FEET WITH NO
SIGNIFICANT WEATHER AND/OR NO OBSTRUCTIONS TO VISIBILITY.

NYZ032-033-038>043-046>054-057>066-NYZ062>081-082-084-251900-
EAST


CITY           SKY/WX    TMP DP  RH WIND       PRES   REMARKS
ALBANY         MOSUNNY   88  50  27 NW10      29.99F
GLENS FALLS    SUNNY     84  52  33 S18       29.95F
POUGHKEEPSIE   SUNNY     88  47  24 SW8       30.01F
NEWBURGH       SUNNY     84  46  26 NW9       30.05S
MONTGOMERY     SUNNY     87  44  22 NW8       30.03F
WHITE PLAINS   SUNNY     84  47  27 NW9       30.04F
ISLIP          MOSUNNY   84  53  34 SW13      30.03F
NEW YORK CITY  MOSUNNY   86  49  27 VRB3      30.03F
CENTRAL PARK   SUNNY     86  47  25 VRB7      30.07F
$$

NYZ005>009-017-018-044>046-055-056-251900-
CENTRAL


CITY           SKY/WX    TMP DP  RH WIND       PRES   REMARKS
FULTON         CLOUDY    79  54  41 NW9       30.05S
SYRACUSE       CLOUDY    80  51  36 W9        30.03F
ROME           CLOUDY    76  53  44 W12       30.04S
ELMIRA         PTSUNNY   84  48  28 W12       30.06S
BINGHAMTON     MOSUNNY   81  46  29 NW14G22   30.09F
MONTICELLO     SUNNY     82  45  26 NW12G17   30.11R
$$

NYZ026>034-041>043-087-251900-
NORTH


CITY           SKY/WX    TMP DP  RH WIND       PRES   REMARKS
WATERTOWN      CLOUDY    71  51  49 W8G18     30.02S
FORT DRUM      NOT AVBL
MASSENA        SUNNY     80  49  33 W14       29.96S
SARANAC LAKE   CLOUDY    77  42  28 W9G23     29.99R
PLATTSBURGH    MOSUNNY   74  53  48 SE10      29.92F
$$

NYZ001>004-010>016-019>021-085-251900-
WEST


CITY           SKY/WX    TMP DP  RH WIND       PRES   REMARKS
NIAGARA FALLS  CLOUDY    77  56  48 S8        30.06S
BUFFALO        MOSUNNY   72  51  47 SW18G26   30.09S
DUNKIRK        SUNNY     76  52  43 W15G22    30.13R
JAMESTOWN      MOSUNNY   79  48  34 W8G18     30.15S
WELLSVILLE     MOSUNNY   81  47  30 W6G20     30.16S
ROCHESTER      CLOUDY    84  52  33 W15       30.05S
PENN YAN       MOSUNNY   86  47  25 W12       30.07S
$$

             KEY
       WCI = WIND CHILL INDEX
       VSB = VISIBILITY
       HX  = HEAT INDEX
$$




USA.gov is the U.S. government's official web portal to all federal, state and local government web resources and services.